Regional Weather Roundup
Issued by NWS

Home | Current Version | Previous Version | Text Only | Print | Product List | Glossary Off
Versions: 1 2 3 4 5 6 7 8 9 10 11 12 13 14 15 16 17 18 19 20 21 22 23 24 25 26 27 28 29 30 31 32 33 34 35 36 37 38 39 40 41 42 43 44 45 46 47 48 49 50

716
ASUS43 KLOT 301003
RWRIL

ILLINOIS REGIONAL WEATHER ROUNDUP
NATIONAL WEATHER SERVICE CHICAGO/ROMEOVILLE IL
500 AM CDT SAT APR 30 2016

NOTE: "FAIR" INDICATES FEW OR NO CLOUDS BELOW 12,000 FEET WITH NO
SIGNIFICANT WEATHER AND/OR OBSTRUCTIONS TO VISIBILITY.

* THESE STATIONS ARE NOT UNDER NWS QUALITY CONTROL. THEY ALSO MAY NOT
  REPORT WEATHER SUCH AS PRECIPITATION OR FOG.

ILZ001-002-007-009-015-016-024-301100-
NORTHWEST ILLINOIS

CITY           SKY/WX    TMP DP  RH WIND       PRES   REMARKS
MOLINE         CLOUDY    46  41  82 E13       29.97F HAZE
STERLING*      CLOUDY    45  41  87 E15       30.01F
$$

ILZ003-004-008-010-011-017-018-301100-
NORTH CENTRAL ILLINOIS

CITY           SKY/WX    TMP DP  RH WIND       PRES   REMARKS
ROCKFORD       CLOUDY    45  38  76 E8        30.06F
FREEPORT*      CLOUDY    42  39  88 E10       30.06S
ROCHELLE*      CLOUDY    43  40  88 E9        30.04F
DE KALB*       CLOUDY    44  40  88 E9        30.04S
$$

ILZ005-006-012>014-019>023-301100-
NORTHEAST ILLINOIS

CITY           SKY/WX    TMP DP  RH WIND       PRES   REMARKS
CHICAGO-OHARE  CLOUDY    45  41  86 NE9       30.05F
CHICAGO-MIDWAY CLOUDY    48  41  76 E12       30.05F
AURORA         CLOUDY    46  40  79 E9        30.04S
LANSING*       CLOUDY    47  43  86 E8        30.04F
WAUKEGAN       CLOUDY    44  39  82 NE12      30.07S
DUPAGE AIRPORT CLOUDY    45  39  79 E8        30.04F
WHEELING       CLOUDY    44  40  85 NE8       30.07F
MORRIS*        CLOUDY    46  42  88 NE5       30.02S
NORTHERLY ISL    N/A     45  42  89 NE15        N/A
NORTHERLY ISL    N/A     45  42  89 NE15        N/A
$$

LMZ740>746-301100-
SOUTHERN LAKE MICHIGAN

STATION/POSITION SKY/WX   TEMP    WIND        PRES    VSBY  WAVE
                          AIR SEA DIR/SP/G                  HT/PER
                          (F)     (DEG/KT/KT) (MB)    (MI)  (FT/S)
SOUTHERN BUOY              42 40   60/ 10/ 12 1018.8          1
HARRISON CRIB              45      70/ 16/ 17   N/A
BURNHAM HARBOR             45      60/ 11/ 13   N/A
CALUMET HARBOR             47      60/ 11/ 16 1017.4R
BURNS HARBOR               47      90/ 10/ 13 1018.6R
MICHIGAN CITY              46      50/  9/ 10   N/A
ST. JOSEPH                 47 47                N/A           1/ 4
$$

ILZ025>027-034>036-040-047-049-050-058-095>099-301100-
WEST-CENTRAL ILLINOIS

CITY           SKY/WX    TMP DP  RH WIND       PRES   REMARKS
QUINCY         LGT RAIN  50  48  93 E13       29.85F FOG
MACOMB*        LGT RAIN  46  46  97 E18       29.94F
PITTSFIELD*    LGT RAIN  53  52  97 E9G16     29.88S
$$

ILZ028>032-037-038-041>044-048-051>054-059>061-301100-
CENTRAL ILLINOIS

CITY           SKY/WX    TMP DP  RH WIND       PRES   REMARKS
BLOOMINGTON    CLOUDY    47  47 100 E12       29.98S FOG
DECATUR        LGT RAIN  51  49  92 E15       29.93F FOG
PEORIA         CLOUDY    47  44  90 E16       29.96S FOG
LACON*         RAIN      45  42  90 NE7       29.99S
LINCOLN*       HVY RAIN  50  49  96 E9        29.94S
SPRINGFIELD    LGT RAIN  52  49  89 E12       29.91F FOG
TAYLORVILLE    NOT AVBL
$$

ILZ033-039-045-046-055>057-062-063-301100-
EAST-CENTRAL ILLINOIS

CITY           SKY/WX    TMP DP  RH WIND       PRES   REMARKS
CHAMPAIGN      LGT RAIN  51  49  92 E13       29.97F FOG
MATTOON        RAIN      53  51  93 E7        29.94S FOG
$$

ILZ079-100>102-301100-
SOUTHWEST ILLINOIS

CITY           SKY/WX    TMP DP  RH WIND       PRES   REMARKS
ALTON          RAIN      56  55  98 E12       29.88S
BELLEVILLE     LGT RAIN  57  57 100 E8        29.85F FOG
CAHOKIA*       LGT RAIN  58  56  93 E7        29.85F
SPARTA*        RAIN      57  56  95 SE7       29.88F
$$

ILZ064>066-069>071-074>076-080>082-084>086-088>090-092>094-301100-
SOUTH-CENTRAL ILLINOIS

CITY           SKY/WX    TMP DP  RH WIND       PRES   REMARKS
CARBONDALE     LGT RAIN  58  56  93 CALM      29.87F
CAIRO*         CLOUDY    60  60 100 CALM      29.86R
EFFINGHAM*     HVY RAIN  55  55 100 E10       29.93F
MT. VERNON     CLOUDY    57  52  82 NE5       29.91R
SALEM*         HVY RAIN  58  56  92 CALM      29.90S
$$

ILZ067-068-072-073-078-083-087-091-301100-
SOUTHEAST ILLINOIS

CITY           SKY/WX    TMP DP  RH WIND       PRES   REMARKS
LAWRENCEVILLE  CLOUDY    58  54  86 E10       29.93S
FLORA*         DRIZZLE   60  57  92 NE5       29.92S
HARRISBURG*    LGT RAIN  59  57  93 E10       29.86F
ROBINSON*      CLOUDY    56  53  91 NE6       29.96R
CARMI*         LGT RAIN  60  56  86 SE6       29.89F
$$

ABBREVIATIONS USED IN REMARKS
   TC - TEMPERATURE IN CELSIUS
  WCI - WIND CHILL INDEX
   HX - HEAT INDEX
  VSB - VISIBILITY
$$





USA.gov is the U.S. government's official web portal to all federal, state and local government web resources and services.